Caslav, Czech Republic

10:08 AM CEST on July 26, 2017 (GMT +0200)
Caslav

Weather History for LKCV - May, 2013

Change the Weather History Date:

Friday, May 31, 2013

  Actual Average Record
Temperature  
Mean Temperature 55 °F -  
Max Temperature 59 °F - - ()
Min Temperature 48 °F - - ()
Degree Days  
Heating Degree Days 10    
Growing Degree Days 5 (Base 50)    
Moisture  
Dew Point 50 °F    
Average Humidity 86    
Maximum Humidity 100    
Minimum Humidity 63    
Precipitation  
Precipitation 0.00 in - - ()
Sea Level Pressure  
Sea Level Pressure 29.49 in    
Wind  
Wind Speed 4 mph ()    
Max Wind Speed 14 mph    
Max Gust Speed -    
Visibility 5.0 miles    
Events Fog , Rain    
T = Trace of Precipitation, MM = Missing Value Source: Averaged Metar Reports

Daily Weather History Graph

Daily Weather History Graph

Search for Another Location

Airport or City:

Trip Planner

Search our weather history database for the weather conditions in past years. The results will help you decide how hot, cold, wet, or windy it might be!

Date:

Astronomy

May. 31, 2013 Rise Set
Actual Time 4:55 AM CEST 8:57 PM CEST
Civil Twilight 4:12 AM CEST 9:40 PM CEST
Nautical Twilight 3:13 AM CEST 10:40 PM CEST
Astronomical Twilight 1:18 AM CEST 12:46 AM CEST
Moon 12:56 AM CEST (5/31) 12:20 PM CEST (5/31)
Length of Visible Light 17h 27m
Length of Day
16h 02m
Waning Gibbous, 54% of the Moon is Illuminated
May 31
Waning Gibbous
May 31
Last Quarter
Jun 8
New
Jun 16
First Quarter
Jun 23
Full

Hourly Weather History & Observations

Time (CEST) Temp. Dew Point Humidity Pressure Visibility Wind Dir Wind Speed Gust Speed Precip Events Conditions
12:00 AM 51.8 °F 51.8 °F 100% 29.44 in 6.2 mi Variable 2.3 mph - N/A   Overcast
1:00 AM 51.8 °F 51.8 °F 100% 29.44 in 6.2 mi ESE 1.2 mph - N/A   Overcast
2:00 AM 51.8 °F 51.8 °F 100% 29.44 in 6.2 mi Variable 2.3 mph - N/A   Overcast
3:00 AM 51.8 °F 51.8 °F 100% 29.42 in 6.2 mi East 1.2 mph - N/A   Mostly Cloudy
3:33 AM 51.8 °F 51.8 °F 100% 29.42 in 0.5 mi ENE 3.5 mph - N/A Fog Fog
4:00 AM 51.8 °F 51.8 °F 100% 29.42 in 0.9 mi ENE 3.5 mph - N/A   Overcast
5:00 AM 51.8 °F 51.8 °F 100% 29.42 in 1.6 mi ENE 3.5 mph - N/A   Overcast
6:00 AM 51.8 °F 50.0 °F 94% 29.42 in 2.5 mi NE 3.5 mph - N/A   Mostly Cloudy
7:00 AM 53.6 °F 51.8 °F 94% 29.42 in 2.5 mi ENE 3.5 mph - N/A   Overcast
7:30 AM 53.6 °F 51.8 °F 94% 29.42 in 5.0 mi ENE 6.9 mph - N/A   Overcast
8:00 AM 51.8 °F 50.0 °F 94% 29.44 in 5.0 mi ENE 8.1 mph - N/A   Overcast
9:00 AM 53.6 °F 50.0 °F 88% 29.44 in 5.0 mi SE 6.9 mph - N/A Rain Rain
10:00 AM 51.8 °F 50.0 °F 94% 29.44 in 5.0 mi SE 4.6 mph - N/A Rain Rain
11:00 AM 53.6 °F 50.0 °F 88% 29.47 in 6.2 mi ESE 6.9 mph - N/A Rain Rain
12:00 PM 55.4 °F 50.0 °F 82% 29.47 in 6.2 mi SSE 12.7 mph - N/A Rain Rain
1:00 PM 57.2 °F 50.0 °F 77% 29.50 in 6.2 mi SE 13.8 mph - N/A   Mostly Cloudy
2:00 PM 55.4 °F 48.2 °F 77% 29.53 in 6.2 mi SE 9.2 mph - N/A   Overcast
3:00 PM 59.0 °F 48.2 °F 67% 29.53 in 6.2 mi SE 10.4 mph - N/A   Mostly Cloudy
4:00 PM 59.0 °F 46.4 °F 63% 29.53 in 6.2 mi SSE 12.7 mph - N/A   Mostly Cloudy
5:00 PM 59.0 °F 48.2 °F 67% 29.53 in 6.2 mi ESE 8.1 mph - N/A   Mostly Cloudy
6:00 PM 59.0 °F 48.2 °F 67% 29.56 in 6.2 mi SSE 11.5 mph - N/A   Mostly Cloudy
7:00 PM 59.0 °F 46.4 °F 63% 29.59 in 6.2 mi SSE 4.6 mph - N/A   Mostly Cloudy
8:00 PM 57.2 °F 48.2 °F 72% 29.59 in 6.2 mi SSE 3.5 mph - N/A   Mostly Cloudy
9:00 PM 55.4 °F 48.2 °F 77% 29.62 in 6.2 mi South 2.3 mph - N/A   Mostly Cloudy
10:00 PM 51.8 °F 48.2 °F 88% 29.65 in - Variable 2.3 mph - N/A   Clear
11:00 PM 48.2 °F 46.4 °F 93% 29.65 in - West 3.5 mph - N/A   Clear